GW5002 Weather Reports


time (UTC)temp
F
wind
direction
speed
knots
gust
knots
rain 1hr
in
rain 24hr
in
rain mn
in
humidity
%
barometer
mb
20260906113041 0 0.0 0.0 0.00 0.00 0.00 1011.0
20260906111538 0 0.0 0.0 0.00 0.00 0.00 1010.9
20260906110032 0 0.0 0.0 0.00 0.00 0.00 1010.8
20260906104535 0 0.0 0.0 0.00 0.00 0.00 1010.5
20260906103036 0 0.0 0.0 0.00 0.00 0.00 1010.5
20260906101536 0 0.0 0.0 0.00 0.00 0.00 1010.4
20260906100035 0 0.0 0.0 0.00 0.00 0.00 1010.1
20260906094533 0 0.0 0.0 0.00 0.00 0.00 1010.2
20260906093047 0 0.0 0.0 0.00 0.00 0.00 1009.8
20260906091535 0 0.0 0.0 0.00 0.00 0.00 1009.9
20260906084541 0 0.0 0.0 0.00 0.00 0.00 1009.8
20260906083041 0 0.0 0.0 0.00 0.00 0.00 1009.5
20260906081535 0 0.0 0.0 0.00 0.00 0.00 1009.8
20260906080034 0 0.0 0.0 0.00 0.00 0.00 1010.0
20260906074548 0 0.0 0.0 0.00 0.00 0.00 1009.9
20260906073038 0 0.0 0.0 0.00 0.00 0.00 1009.9
20260906071535 0 0.0 0.0 0.00 0.00 0.00 1010.3
20260906070008 78 0.0 0.0 0.00 0.00 0.00 85 1010.3
20260906064517 78 0.0 0.0 0.00 0.00 0.00 85 1010.6
20260906063003 79 0.0 0.0 0.00 0.00 0.00 84 1010.7
20260906061505 79 0.0 0.0 0.00 0.00 0.00 83 1010.7
20260906060009 79 0.0 0.0 0.00 0.00 0.00 83 1010.7
20260906054514 80 0.0 0.0 0.00 0.00 0.00 82 1010.7
20260906053020 80 0.0 0.0 0.00 0.00 0.00 82 1010.9
20260906051505 80 0.0 0.0 0.00 0.00 0.00 85 1010.9
20260906050008 81 0.0 0.0 0.00 0.00 0.00 86 1011.0
20260906044510 81 0.0 0.0 0.00 0.00 0.00 86 1011.2
20260906043016 81 0.0 0.0 0.00 0.00 0.00 86 1011.4
20260906041535 82 0.0 0.0 0.00 0.00 0.00 89 1011.4
20260906040007 83 0.0 0.0 0.00 0.00 0.00 90 1011.0
20260906034514 83 0.0 0.0 0.00 0.00 0.00 90 1011.1
20260906033015 83 0.0 0.0 0.00 0.00 0.00 90 1011.0
20260906031521 83 0.0 0.0 0.00 0.00 0.00 90 1011.1
20260906030034 83 0.0 0.0 0.00 0.00 0.00 89 1011.0
20260906024508 83 0.0 0.0 0.00 0.00 0.00 89 1011.1
20260906023014 83 0.0 0.0 0.00 0.00 0.00 89 1010.6
20260906021518 83 0.0 0.0 0.00 0.00 0.00 89 1011.1
20260906020025 83 0.0 0.0 0.00 0.00 0.00 89 1010.8
20260906014542 83 0.0 0.0 0.00 0.00 0.00 88 1009.0
20260906013008 83 0.0 0.0 0.00 0.00 0.00 87 1009.6
20260906011517 83 0.0 0.0 0.00 0.00 0.00 87 1010.0
20260906010053 83 0.0 0.0 0.00 0.00 0.00 87 1010.4
20260906004527 83 0.0 0.0 0.00 0.00 0.00 86 1010.6
20260906003039 83 0.0 0.0 0.00 0.00 0.00 85 1010.9
20260906001513 84 0.0 0.0 0.00 0.00 0.00 85 1011.0
20260906000023 84 0.0 0.0 0.00 0.00 0.00 84 1011.0
20260905234506 84 0.0 0.0 0.00 0.00 0.00 83 1011.1
20260905233007 85 0.0 0.0 0.00 0.00 0.00 83 1011.0
20260905231510 85 0.0 0.0 0.00 0.00 0.00 81 1011.1
20260905230021 86 0.0 0.0 0.00 0.00 0.00 79 1010.9
20260905224535 87 0.0 0.0 0.00 0.00 0.00 79 1010.9
20260905223016 88 0.0 0.0 0.00 0.00 0.00 77 1010.6
20260905221536 88 0.0 0.0 0.00 0.00 0.00 77 1010.7
20260905220025 88 0.0 0.0 0.00 0.00 0.00 76 1010.7
20260905214523 89 0.0 0.0 0.00 0.00 0.00 76 1010.5
20260905213029 89 0.0 0.0 0.00 0.00 0.00 75 1010.6
20260905211525 89 0.0 0.0 0.00 0.00 0.00 75 1010.3
20260905210016 90 0.0 0.0 0.00 0.00 0.00 73 1010.2
20260905204525 91 0.0 0.0 0.00 0.00 0.00 73 1010.1
20260905203039 92 0.0 0.0 0.00 0.00 0.00 71 1009.8
20260905201550 92 0.0 0.0 0.00 0.00 0.00 71 1009.7
20260905200015 92 0.0 0.0 0.00 0.00 0.00 70 1009.7
20260905194519 92 0.0 0.0 0.00 0.00 0.00 71 1010.0
20260905193032 92 0.0 0.0 0.00 0.00 0.00 71 1010.2
20260905191532 91 0.0 0.0 0.00 0.00 0.00 70 1010.6
20260905190033 91 0.0 0.0 0.00 0.00 0.00 71 1010.8
20260905184515 93 0.0 0.0 0.00 0.00 0.00 66 1011.1
20260905183034 92 0.0 0.0 0.00 0.00 0.00 64 1011.3
20260905181527 92 0.0 0.0 0.00 0.00 0.00 64 1011.3
20260905180032 91 0.0 0.0 0.00 0.00 0.00 69 1011.4
20260905174515 91 0.0 0.0 0.00 0.00 0.00 66 1011.7
20260905173023 91 0.0 0.0 0.00 0.00 0.00 67 1012.1
20260905171528 90 0.0 0.0 0.00 0.00 0.00 68 1012.3
20260905170031 90 0.0 0.0 0.00 0.00 0.00 67 1012.5
20260905164534 90 0.0 0.0 0.00 0.00 0.00 68 1012.7
20260905163025 90 0.0 0.0 0.00 0.00 0.00 68 1013.1
20260905161527 90 0.0 0.0 0.00 0.00 0.00 69 1013.3
20260905160031 90 0.0 0.0 0.00 0.00 0.00 68 1013.5
20260905154531 90 0.0 0.0 0.00 0.00 0.00 72 1013.6
20260905153034 89 0.0 0.0 0.00 0.00 0.00 71 1013.8
20260905151534 88 0.0 0.0 0.00 0.00 0.00 75 1013.8
20260905150027 87 0.0 0.0 0.00 0.00 0.00 76 1013.9
20260905144536 86 0.0 0.0 0.00 0.00 0.00 78 1013.8
20260905143008 87 0.0 0.0 0.00 0.00 0.00 79 1013.9
20260905141504 86 0.0 0.0 0.00 0.00 0.00 80 1013.9
20260905140004 85 0.0 0.0 0.00 0.00 0.00 80 1014.0
20260905134508 84 0.0 0.0 0.00 0.00 0.00 83 1013.9
20260905133008 84 0.0 0.0 0.00 0.00 0.00 84 1014.1
20260905131513 84 0.0 0.0 0.00 0.00 0.00 86 1014.1
20260905130004 82 0.0 0.0 0.00 0.00 0.00 88 1014.0
20260905124514 0 0.0 0.0 0.00 0.00 0.00 1014.1
20260905123011 0 0.0 0.0 0.00 0.00 0.00 1014.0
20260905121512 0 0.0 0.0 0.00 0.00 0.00 1013.9
20260905120012 0 0.0 0.0 0.00 0.00 0.00 1013.8
20260905114512 0 0.0 0.0 0.00 0.00 0.00 1013.8